Regional Weather Roundup
Issued by NWS Albany, NY

Home | Current Version | Previous Version | Text Only | Print | Product List | Glossary Off
Versions: 1 2 3 4 5 6 7 8 9 10 11 12 13 14 15 16 17 18 19 20 21 22 23 24 25 26 27 28 29 30 31 32 33 34 35 36 37 38 39 40 41 42 43 44 45 46 47 48 49 50

000
ASUS41 KALY 202210
RWRALY

NEW YORK STATE HOURLY WEATHER ROUNDUP
NATIONAL WEATHER SERVICE ALBANY NY
600 PM EDT WED SEP 20 2017

NOTE: "FAIR" INDICATES FEW OR NO CLOUDS BELOW 12,000 FEET WITH NO
SIGNIFICANT WEATHER AND/OR NO OBSTRUCTIONS TO VISIBILITY.

NYZ032-033-038>043-046>054-057>066-NYZ062>081-082-084-202300-
EAST


CITY           SKY/WX    TMP DP  RH WIND       PRES   REMARKS
ALBANY         CLOUDY    76  64  66 N6        29.95S
GLENS FALLS    CLOUDY    75  62  64 NE7       29.96R
POUGHKEEPSIE   CLOUDY    76  64  66 N5        29.91R
NEWBURGH       MOCLDY    77  66  69 E9        29.94R
MONTGOMERY     PTCLDY    77  66  68 N3        29.93R
WHITE PLAINS   MOCLDY    76  65  68 NW13      29.91R
ISLIP          CLOUDY    76  66  71 N14       29.86R
NEW YORK CITY  CLOUDY    78  65  63 N14G25    29.89R
CENTRAL PARK   CLOUDY    78  64  61 VRB6      29.93R
$$

NYZ005>009-017-018-044>046-055-056-202300-
CENTRAL


CITY           SKY/WX    TMP DP  RH WIND       PRES   REMARKS
FULTON         SUNNY     75  65  70 NW6       29.99S
SYRACUSE       PTSUNNY   77  66  68 NW8       29.97S
ROME           MOSUNNY   78  65  63 W9        29.97R
ELMIRA         SUNNY     79  64  60 N6        30.00R
BINGHAMTON     SUNNY     76  58  53 N9        30.01R
MONTICELLO     MOSUNNY   75  62  64 N12       30.00R
$$

NYZ026>034-041>043-087-202300-
NORTH


CITY           SKY/WX    TMP DP  RH WIND       PRES   REMARKS
WATERTOWN      SUNNY     76  64  66 NE10      29.99R
FORT DRUM      NOT AVBL
OGDENSBURG     FAIR      78  65  64 NE5       30.01R
MASSENA        CLEAR     77  64  64 NE7       30.02R
SARANAC LAKE   CLOUDY    72  61  68 NE10      30.04S
PLATTSBURGH    PTCLDY    77  63  61 N12       29.99S
$$

NYZ001>004-010>016-019>021-085-202300-
WEST


CITY           SKY/WX    TMP DP  RH WIND       PRES   REMARKS
NIAGARA FALLS  SUNNY     81  63  54 NE7       30.00S
BUFFALO        MOSUNNY   79  65  62 NE8       30.01S
DUNKIRK        SUNNY     76  64  66 CALM      30.01S
JAMESTOWN      SUNNY     76  62  62 N5        30.05S
WELLSVILLE     MOSUNNY   76  59  55 NE7       30.08R
ROCHESTER      MOSUNNY   76  61  59 E9        30.02S
PENN YAN       SUNNY     76  60  57 NW6       30.03R
$$

             KEY
       WCI = WIND CHILL INDEX
       VSB = VISIBILITY
       HX  = HEAT INDEX
$$



USA.gov is the U.S. government's official web portal to all federal, state and local government web resources and services.